Location: Newark
(7.0858°N, 171.3717°E)
Time: 06:13:45
(UTC+00:00)

Courier 1B - Pass Details

Date: 27 November 2020
Orbit: 962 x 1209 km, 28.3° (Epoch: 20 January)

Event Time Altitude Azimuth Distance (km) Brightness Sun altitude
Rises 13:39:48 0° 313° (NW) 3,880 - -66.5°
Reaches altitude 10° 13:44:20 10° 338° (NNW) 2,982 - -65.6°
Maximum altitude 13:47:42 13° 6° (N) 2,768 - -65.0°
Drops below altitude 10° 13:51:09 10° 33° (NNE) 3,060 - -64.3°
Sets 13:55:56 0° 59° (ENE) 4,065 - -63.3°
